Content
SEND FEEDBACK

Daily
Averages
Monthly
Summary
United States of America

CHELSEA, MICHIGAN


Home > North America > United States > Michigan
Elevation: 900 feet     Latitude: 42 19N     Longitude: 084 01W

WEATHER
 
SELECT A DAY
Number of Records: 203,874;   Date Range: 1/1/95 - 8/25/14
 
SHARE

PRINT THIS DATA

[ ← Previous Day ]
WEATHER ALMANAC - FEBRUARY 19, 2013
[ Next Day → ]
[ °C ]   °F
Weather ElementAverageHighLow
Temperature26.8 °F43 °F (1:53 am)17.6 °F (9:25 pm)
Dewpoint21.7 °F39.9 °F (1:53 am)10 °F (11:53 pm)
Humidity81.4 %93 % (4:57 am)68 % (3:53 pm)
Barometer29.69 in29.96 in (10:53 pm)29.42 in (4:26 am)
Wind Speed20.2 mph28.8 mph (12:23 pm)
Wind Gust39.1 mph (4:53 am)
Weather ElementAverage
Visibility5.2 mi
Wind DirectionWSW (250 °)

Weather ElementTotal
Precipitation0.17 in
Heating Degree Days34.7 (Base 65)
Averaged from 54 records on February 19, 2013
WEATHER CONDITIONS BREAKOUT
WIND DIRECTION BREAKOUT
WEATHER BY HOUR - FEBRUARY 19, 2013
[ °C ]   °F
Local TimeTemperatureDewpointHumidityBarometerVisibilityWind DirectionWind SpeedGust SpeedPrecipitationEventsConditions
1:34 AM42.8 °F39.2 °F87 %29.53 in10.0 miSSW (200°)15.0 mph25.3 mph0.02 inRainLight Rain
1:53 AM43.0 °F39.9 °F89 %29.53 in10.0 miSouth (190°)16.1 mph32.2 mph0.03 inRainLight Rain
2:11 AM42.8 °F39.2 °F87 %29.50 in8.0 miSouth (190°)12.7 mph20.7 mph0.00 inRainLight Rain
2:53 AM42.1 °F39.0 °F89 %29.49 in7.0 miSouth (190°)16.1 mph27.6 mph0.04 inRainLight Rain
3:53 AM42.1 °F39.9 °F92 %29.44 in7.0 miSSW (200°)18.4 mph27.6 mph0.05 inRainLight Rain
4:26 AM42.8 °F39.2 °F87 %29.42 in4.0 miSSW (210°)18.4 mph25.3 mph0.01 inRainLight Rain
4:53 AM39.0 °F36.0 °F89 %29.47 in5.0 miWest (260°)24.2 mph39.1 mph0.02 inRainLight Rain
4:57 AM37.4 °F35.6 °F93 %29.46 in8.0 miWest (260°)23.0 mph36.8 mph0.00 inRainLight Rain
4:59 AM37.4 °F35.6 °F93 %29.46 in10.0 miWest (260°)19.6 mph32.2 mph0.00 inOvercast
5:20 AM37.4 °F33.8 °F87 %29.48 in10.0 miWest (270°)17.3 mph29.9 mph0.00 inOvercast
5:53 AM36.0 °F33.1 °F89 %29.50 in10.0 miWest (270°)20.7 mph27.6 mph0.00 inOvercast
6:53 AM34.0 °F30.9 °F89 %29.55 in7.0 miWSW (250°)23.0 mph29.9 mphOvercast
7:45 AM33.8 °F30.2 °F87 %29.54 in5.0 miWSW (240°)17.3 mph24.2 mph0.00 inRainLight Freezing Rain
7:53 AM32.0 °F30.0 °F92 %29.57 in6.0 miWSW (250°)19.6 mph24.2 mph0.00 inRainLight Freezing Rain
8:27 AM30.2 °F28.4 °F93 %29.57 in5.0 miWSW (250°)21.9 mph28.8 mph0.00 inOvercast
8:53 AM28.9 °F26.1 °F89 %29.61 in6.0 miWSW (250°)24.2 mph33.4 mph0.00 inOvercast
9:15 AM28.4 °F24.8 °F86 %29.60 in4.0 miWSW (240°)19.6 mph28.8 mph0.00 inSnowLight Snow
9:44 AM26.6 °F24.8 °F93 %29.62 in1.8 miWSW (240°)24.2 mph29.9 mph0.00 inSnowLight Snow
9:53 AM26.1 °F23.0 °F88 %29.64 in1.0 miWSW (240°)19.6 mph27.6 mph0.00 inSnowLight Snow
10:03 AM26.6 °F21.2 °F80 %29.62 in1.5 miWSW (250°)20.7 mph27.6 mph0.00 inSnowLight Snow
10:12 AM26.6 °F21.2 °F80 %29.62 in1.0 miWSW (240°)19.6 mph25.3 mph0.00 inSnowLight Snow
10:27 AM26.6 °F21.2 °F80 %29.63 in0.8 miWSW (250°)16.1 mph24.2 mph0.00 inSnowLight Snow
10:36 AM24.8 °F21.2 °F86 %29.63 in0.5 miWSW (250°)16.1 mph0.00 inFog-SnowSnow
10:48 AM26.6 °F21.2 °F80 %29.63 in1.2 miWSW (250°)20.7 mph0.00 inSnowLight Snow
10:53 AM26.1 °F21.0 °F81 %29.65 in1.5 miWSW (250°)23.0 mph27.6 mph0.00 inSnowLight Snow
11:00 AM26.6 °F19.4 °F74 %29.64 in3.0 miWSW (250°)25.3 mph32.2 mph0.00 inSnowLight Snow
11:11 AM24.8 °F19.4 °F80 %29.64 in5.0 miWSW (250°)26.5 mph34.5 mph0.00 inSnowLight Snow
11:53 AM25.0 °F17.1 °F72 %29.68 in9.0 miWSW (250°)24.2 mph34.5 mph0.00 inOvercast
12:23 PM24.8 °F15.8 °F69 %29.67 in9.0 miWest (260°)28.8 mph38.0 mph0.00 inOvercast
12:30 PM24.8 °F15.8 °F69 %29.67 in10.0 miWest (260°)28.8 mph38.0 mph0.00 inOvercast
1:21 PM23.0 °F17.6 °F80 %29.68 in2.0 miWest (260°)23.0 mph31.1 mph0.00 inSnowLight Snow
1:28 PM23.0 °F17.6 °F80 %29.68 in1.8 miWest (260°)19.6 mph28.8 mph0.00 inSnowLight Snow
1:32 PM24.8 °F17.6 °F74 %29.68 in3.0 miWSW (250°)20.7 mph27.6 mph0.00 inSnowLight Snow
1:53 PM23.0 °F15.1 °F72 %29.72 in4.0 miWest (260°)20.7 mph33.4 mph0.00 inSnowLight Snow
2:53 PM23.0 °F15.1 °F72 %29.73 in5.0 miWSW (250°)23.0 mph29.9 mph0.00 inSnowLight Snow
3:53 PM21.9 °F12.9 °F68 %29.77 in9.0 miWest (260°)19.6 mph28.8 mph0.00 inSnowLight Snow
4:53 PM21.0 °F14.0 °F74 %29.81 in6.0 miWest (260°)25.3 mph31.1 mph0.00 inSnowLight Snow
5:26 PM19.4 °F14.0 °F80 %29.80 in2.5 miWSW (250°)25.3 mph34.5 mph0.00 inSnowLight Snow
5:48 PM19.4 °F14.0 °F80 %29.81 in1.5 miWSW (250°)24.2 mph28.8 mph0.00 inSnowLight Snow
5:53 PM19.9 °F14.0 °F78 %29.84 in1.8 miWest (260°)18.4 mph27.6 mph0.00 inSnowLight Snow
6:02 PM19.4 °F14.0 °F80 %29.82 in2.5 miWSW (250°)20.7 mph25.3 mph0.00 inSnowLight Snow
6:20 PM19.4 °F14.0 °F80 %29.83 in1.8 miWest (260°)21.9 mph27.6 mph0.00 inSnowLight Snow
6:28 PM19.4 °F14.0 °F80 %29.83 in2.5 miWest (260°)21.9 mph28.8 mph0.00 inSnowLight Snow
7:53 PM19.0 °F12.0 °F74 %29.91 in8.0 miWest (270°)20.7 mph29.9 mph0.00 inSnowLight Snow
8:42 PM19.4 °F12.2 °F74 %29.89 in7.0 miWest (260°)17.3 mph24.2 mph0.00 inSnowLight Snow
8:53 PM19.0 °F12.0 °F74 %29.93 in8.0 miWest (260°)17.3 mph26.5 mph0.00 inSnowLight Snow
9:13 PM19.4 °F12.2 °F74 %29.90 in5.0 miWest (270°)18.4 mph0.00 inSnowLight Snow
9:25 PM17.6 °F14.0 °F86 %29.90 in1.8 miWest (270°)16.1 mph24.2 mph0.00 inSnowLight Snow
9:35 PM17.6 °F14.0 °F86 %29.91 in3.0 miWest (270°)16.1 mph0.00 inSnowLight Snow
9:45 PM17.6 °F14.0 °F86 %29.91 in2.5 miWest (270°)12.7 mph0.00 inSnowLight Snow
9:53 PM18.0 °F14.0 °F84 %29.95 in3.0 miWest (260°)12.7 mph0.00 inSnowLight Snow
10:53 PM19.0 °F12.0 °F74 %29.96 in10.0 miWest (270°)12.7 mph0.00 inOvercast
11:18 PM19.4 °F10.4 °F68 %29.92 in10.0 miWest (280°)21.9 mphOvercast
11:53 PM19.0 °F10.0 °F68 %29.96 in10.0 miWest (270°)19.6 mph26.5 mphOvercast
Hourly data recorded from KARB, located miles away from Chelsea, Michigan







STORIES FROM OUR PARTNERS